When you browse on this site, cookies collect data to enhance your experience and personalize the content and advertising you see.
Visit our Privacy Policy to learn more. By continuing to use the site, you agree to this use of cookies and data.
  • In Switzerland
  • List of Countries
  • For 7 days
  • Water Temperature
  • Weather Map
  • Weather Widgets
  • user-avatar
    Login

    Hourly Weather Dhaka

    Today, 26 February, Wednesday

    Time Temperature Precipitation Wind Pressure Humidity
    00:00 +21°C° 0 mm 1 mps 758 mmHg 79%
    01:00 +20°C° 0.1 mm 1 mps 758 mmHg 80%
    02:00 +20°C° 0.1 mm 1 mps 758 mmHg 81%
    03:00 +17°C° 0.1 mm 0 mps 758 mmHg 82%
    04:00 +17°C° 0.1 mm 0 mps 758 mmHg 82%
    05:00 +17°C° 0.1 mm 0 mps 758 mmHg 82%
    06:00 +17°C° 0 mm 0 mps 758 mmHg 86%
    07:00 +21°C° 0.1 mm 1 mps 759 mmHg 79%
    08:00 +22°C° 0.1 mm 1 mps 759 mmHg 73%
    09:00 +24°C° 0.1 mm 1 mps 760 mmHg 67%
    10:00 +26°C° 0.1 mm 2 mps 759 mmHg 60%
    11:00 +27°C° 0.1 mm 2 mps 759 mmHg 53%
    12:00 +29°C° 0.1 mm 3 mps 759 mmHg 47%
    13:00 +29°C° 0.1 mm 3 mps 758 mmHg 45%
    14:00 +29°C° 0.1 mm 3 mps 757 mmHg 42%
    15:00 +30°C° 0.1 mm 3 mps 756 mmHg 40%
    16:00 +28°C° 0.6 mm 3 mps 756 mmHg 48%
    17:00 +26°C° 0.6 mm 3 mps 756 mmHg 57%
    18:00 +23°C° 0.6 mm 4 mps 756 mmHg 65%
    19:00 +22°C° 0.8 mm 4 mps 757 mmHg 69%
    20:00 +22°C° 0.8 mm 3 mps 758 mmHg 73%
    21:00 +21°C° 0.8 mm 3 mps 759 mmHg 77%
    22:00 +21°C° 0.3 mm 2 mps 759 mmHg 78%
    23:00 +20°C° 0.3 mm 2 mps 759 mmHg 80%

    Tomorrow, 27 February, Thursday

    Time Temperature Precipitation Wind Pressure Humidity
    00:00 +20°C° 0.3 mm 2 mps 759 mmHg 82%
    01:00 +20°C° 0 mm 1 mps 759 mmHg 83%
    02:00 +20°C° 0 mm 1 mps 758 mmHg 84%
    03:00 +20°C° 0 mm 1 mps 758 mmHg 85%
    04:00 +19°C° 0 mm 1 mps 758 mmHg 86%
    05:00 +18°C° 0 mm 2 mps 758 mmHg 87%
    06:00 +18°C° 0 mm 2 mps 758 mmHg 87%
    07:00 +19°C° 0 mm 2 mps 759 mmHg 80%
    08:00 +22°C° 0 mm 1 mps 759 mmHg 73%
    09:00 +24°C° 0 mm 1 mps 760 mmHg 66%
    10:00 +26°C° 0 mm 1 mps 760 mmHg 56%
    11:00 +28°C° 0 mm 1 mps 759 mmHg 47%
    12:00 +29°C° 0 mm 1 mps 759 mmHg 38%
    13:00 +30°C° 0 mm 1 mps 758 mmHg 36%
    14:00 +30°C° 0 mm 2 mps 757 mmHg 34%
    15:00 +30°C° 0 mm 2 mps 757 mmHg 32%
    16:00 +29°C° 0 mm 2 mps 757 mmHg 34%
    17:00 +28°C° 0 mm 2 mps 757 mmHg 36%
    18:00 +26°C° 0 mm 2 mps 757 mmHg 39%
    19:00 +26°C° 0 mm 2 mps 757 mmHg 40%
    20:00 +25°C° 0 mm 2 mps 758 mmHg 41%
    21:00 +24°C° 0 mm 2 mps 759 mmHg 42%
    22:00 +24°C° 0 mm 2 mps 759 mmHg 44%
    23:00 +23°C° 0 mm 2 mps 759 mmHg 46%

    Day after tomorrow, 28 February, Friday

    Time Temperature Precipitation Wind Pressure Humidity
    00:00 +23°C° 0 mm 2 mps 759 mmHg 48%
    01:00 +22°C° 0 mm 1 mps 758 mmHg 50%
    02:00 +22°C° 0 mm 1 mps 758 mmHg 53%
    03:00 +19°C° 0 mm 0 mps 757 mmHg 56%
    04:00 +19°C° 0 mm 0 mps 757 mmHg 57%
    05:00 +20°C° 0 mm 1 mps 758 mmHg 58%
    06:00 +20°C° 0 mm 1 mps 758 mmHg 59%
    07:00 +22°C° 0 mm 1 mps 758 mmHg 55%
    08:00 +24°C° 0 mm 1 mps 759 mmHg 51%
    09:00 +25°C° 0 mm 1 mps 759 mmHg 47%
    10:00 +27°C° 0 mm 1 mps 759 mmHg 42%
    11:00 +29°C° 0 mm 1 mps 759 mmHg 38%
    12:00 +30°C° 0 mm 1 mps 758 mmHg 33%
    13:00 +31°C° 0 mm 1 mps 757 mmHg 31%
    14:00 +31°C° 0 mm 2 mps 756 mmHg 29%
    15:00 +31°C° 0 mm 2 mps 756 mmHg 28%
    16:00 +30°C° 0 mm 2 mps 755 mmHg 31%
    17:00 +29°C° 0 mm 2 mps 755 mmHg 34%
    18:00 +27°C° 0 mm 2 mps 755 mmHg 37%
    19:00 +27°C° 0 mm 2 mps 756 mmHg 38%
    20:00 +26°C° 0 mm 2 mps 756 mmHg 39%
    21:00 +25°C° 0 mm 2 mps 757 mmHg 39%
    22:00 +24°C° 0 mm 2 mps 756 mmHg 41%
    23:00 +24°C° 0 mm 2 mps 756 mmHg 42%

    29 February, Saturday

    Time Temperature Precipitation Wind Pressure Humidity
    00:00 +23°C° 0 mm 1 mps 756 mmHg 43%
    01:00 +23°C° 0 mm 1 mps 756 mmHg 44%
    02:00 +22°C° 0 mm 1 mps 756 mmHg 46%
    03:00 +22°C° 0 mm 1 mps 755 mmHg 47%
    04:00 +22°C° 0 mm 1 mps 755 mmHg 49%
    05:00 +21°C° 0 mm 1 mps 755 mmHg 51%
    06:00 +19°C° 0 mm 0 mps 755 mmHg 52%
    07:00 +21°C° 0 mm 0 mps 756 mmHg 49%
    08:00 +23°C° 0 mm 0 mps 757 mmHg 45%
    09:00 +25°C° 0 mm 0 mps 757 mmHg 42%
    10:00 +28°C° 0 mm 1 mps 757 mmHg 38%
    11:00 +30°C° 0 mm 1 mps 757 mmHg 34%
    12:00 +32°C° 0 mm 1 mps 756 mmHg 30%
    13:00 +32°C° 0 mm 2 mps 756 mmHg 28%
    14:00 +34°C° 0 mm 2 mps 755 mmHg 26%
    15:00 +34°C° 0 mm 3 mps 754 mmHg 25%
    16:00 +33°C° 0 mm 3 mps 754 mmHg 28%
    17:00 +30°C° 0 mm 3 mps 754 mmHg 31%
    18:00 +28°C° 0 mm 3 mps 754 mmHg 35%
    19:00 +28°C° 0 mm 2 mps 755 mmHg 35%
    20:00 +27°C° 0 mm 2 mps 755 mmHg 36%
    21:00 +26°C° 0 mm 1 mps 756 mmHg 37%
    22:00 +26°C° 0 mm 1 mps 756 mmHg 38%
    23:00 +25°C° 0 mm 1 mps 756 mmHg 39%

    1 March, Sunday

    Time Temperature Precipitation Wind Pressure Humidity
    00:00 +25°C° 0 mm 2 mps 756 mmHg 40%
    01:00 +24°C° 0 mm 1 mps 756 mmHg 42%
    02:00 +23°C° 0 mm 1 mps 755 mmHg 44%
    03:00 +21°C° 0 mm 0 mps 755 mmHg 47%
    04:00 +20°C° 0 mm 0 mps 755 mmHg 48%
    05:00 +22°C° 0 mm 1 mps 755 mmHg 49%
    06:00 +22°C° 0 mm 1 mps 756 mmHg 50%
    07:00 +24°C° 0 mm 1 mps 756 mmHg 46%
    08:00 +26°C° 0 mm 1 mps 757 mmHg 42%
    09:00 +26°C° 0 mm 0 mps 757 mmHg 38%
    10:00 +29°C° 0 mm 1 mps 757 mmHg 34%
    11:00 +31°C° 0 mm 1 mps 757 mmHg 31%
    12:00 +33°C° 0 mm 1 mps 756 mmHg 27%
    13:00 +35°C° 0 mm 2 mps 755 mmHg 26%
    14:00 +35°C° 0 mm 2 mps 755 mmHg 24%
    15:00 +36°C° 0 mm 3 mps 754 mmHg 23%
    16:00 +34°C° 0 mm 2 mps 754 mmHg 26%
    17:00 +32°C° 0 mm 2 mps 754 mmHg 28%
    18:00 +30°C° 0 mm 1 mps 753 mmHg 31%
    19:00 +29°C° 0 mm 2 mps 754 mmHg 33%
    20:00 +28°C° 0 mm 2 mps 754 mmHg 35%
    21:00 +27°C° 0 mm 2 mps 755 mmHg 36%
    22:00 +26°C° 0 mm 2 mps 755 mmHg 43%
    23:00 +26°C° 0 mm 2 mps 755 mmHg 49%

    2 March, Monday

    Time Temperature Precipitation Wind Pressure Humidity
    00:00 +25°C° 0 mm 3 mps 755 mmHg 55%
    01:00 +24°C° 0 mm 2 mps 755 mmHg 57%
    02:00 +24°C° 0 mm 2 mps 755 mmHg 58%
    03:00 +23°C° 0 mm 2 mps 755 mmHg 60%
    04:00 +23°C° 0 mm 2 mps 755 mmHg 61%
    05:00 +23°C° 0 mm 2 mps 755 mmHg 61%
    06:00 +22°C° 0 mm 1 mps 755 mmHg 62%
    07:00 +24°C° 0 mm 2 mps 756 mmHg 58%
    08:00 +26°C° 0 mm 2 mps 756 mmHg 53%
    09:00 +28°C° 0 mm 2 mps 757 mmHg 49%
    10:00 +30°C° 0 mm 2 mps 757 mmHg 43%
    11:00 +32°C° 0 mm 2 mps 756 mmHg 38%
    12:00 +34°C° 0 mm 3 mps 756 mmHg 33%
    13:00 +35°C° 0 mm 3 mps 755 mmHg 30%
    14:00 +36°C° 0 mm 3 mps 754 mmHg 28%
    15:00 +37°C° 0 mm 2 mps 753 mmHg 26%
    16:00 +34°C° 0.2 mm 3 mps 753 mmHg 34%
    17:00 +30°C° 0.2 mm 3 mps 753 mmHg 42%
    18:00 +28°C° 0.2 mm 4 mps 753 mmHg 51%
    19:00 +26°C° 1.6 mm 4 mps 753 mmHg 59%
    20:00 +25°C° 1.6 mm 5 mps 754 mmHg 67%
    21:00 +23°C° 1.6 mm 5 mps 755 mmHg 75%
    22:00 +23°C° 0.4 mm 4 mps 755 mmHg 73%
    23:00 +23°C° 0.4 mm 4 mps 755 mmHg 70%
    Show more